Year,Month,Day,Hour,Minute,Value (Times are PST for temperature in C)
2010,06,12,00,00,11.30
2010,06,12,00,01,11.30
2010,06,12,00,02,11.30
2010,06,12,00,03,11.20
2010,06,12,00,04,11.20
2010,06,12,00,05,11.20
2010,06,12,00,06,11.20
2010,06,12,00,07,11.20
2010,06,12,00,08,11.10
2010,06,12,00,09,11.10
2010,06,12,00,10,11.10
2010,06,12,00,11,11.10
2010,06,12,00,12,11.10
2010,06,12,00,13,11.10
2010,06,12,00,14,11.10
2010,06,12,00,15,11.10
2010,06,12,00,16,11.10
2010,06,12,00,17,11.10
2010,06,12,00,18,11.10
2010,06,12,00,19,11.10
2010,06,12,00,20,11.00
2010,06,12,00,21,10.90
2010,06,12,00,22,10.90
2010,06,12,00,23,10.90
2010,06,12,00,24,10.90
2010,06,12,00,25,10.90
2010,06,12,00,26,10.90
2010,06,12,00,27,10.90
2010,06,12,00,28,10.90
2010,06,12,00,29,10.80
2010,06,12,00,30,10.80
2010,06,12,00,31,10.80
2010,06,12,00,32,10.80
2010,06,12,00,33,10.80
2010,06,12,00,34,10.70
2010,06,12,00,35,10.70
2010,06,12,00,36,10.70
2010,06,12,00,37,10.70
2010,06,12,00,38,10.70
2010,06,12,00,39,10.70
2010,06,12,00,40,10.70
2010,06,12,00,41,10.70
2010,06,12,00,42,10.70
2010,06,12,00,43,10.70
2010,06,12,00,44,10.70
2010,06,12,00,45,10.60
2010,06,12,00,46,10.60
2010,06,12,00,47,10.60
2010,06,12,00,48,10.60
2010,06,12,00,49,10.60
2010,06,12,00,50,10.60
2010,06,12,00,51,10.60
2010,06,12,00,52,10.60
2010,06,12,00,53,10.60
2010,06,12,00,54,10.60
2010,06,12,00,55,10.40
2010,06,12,00,56,10.40
2010,06,12,00,57,10.40
2010,06,12,00,58,10.40
2010,06,12,00,59,10.40
2010,06,12,01,00,10.40
2010,06,12,01,01,10.40
2010,06,12,01,02,10.30
2010,06,12,01,03,10.30
2010,06,12,01,04,10.30
2010,06,12,01,05,10.20
2010,06,12,01,06,10.20
2010,06,12,01,07,10.20
2010,06,12,01,08,10.20
2010,06,12,01,09,10.20
2010,06,12,01,10,10.20
2010,06,12,01,11,10.20
2010,06,12,01,12,10.20
2010,06,12,01,13,10.20
2010,06,12,01,14,10.20
2010,06,12,01,15,10.20
2010,06,12,01,16,10.20
2010,06,12,01,17,10.20
2010,06,12,01,18,10.10
2010,06,12,01,19,10.10
2010,06,12,01,20,10.10
2010,06,12,01,21,10.10
2010,06,12,01,22,10.10
2010,06,12,01,23,10.10
2010,06,12,01,24,10.10
2010,06,12,01,25,10.10
2010,06,12,01,26,10.10
2010,06,12,01,27,9.90
2010,06,12,01,28,9.90
2010,06,12,01,29,9.90
2010,06,12,01,30,9.90
2010,06,12,01,31,9.90
2010,06,12,01,32,9.90
2010,06,12,01,33,9.90
2010,06,12,01,34,9.90
2010,06,12,01,35,9.90
2010,06,12,01,36,9.90
2010,06,12,01,37,9.90
2010,06,12,01,38,9.90
2010,06,12,01,39,9.90
2010,06,12,01,40,9.90
2010,06,12,01,41,9.90
2010,06,12,01,42,9.90
2010,06,12,01,43,9.90
2010,06,12,01,44,9.90
2010,06,12,01,45,9.90
2010,06,12,01,46,9.90
2010,06,12,01,47,9.90
2010,06,12,01,48,9.80
2010,06,12,01,49,9.80
2010,06,12,01,50,9.80
2010,06,12,01,51,9.90
2010,06,12,01,52,9.80
2010,06,12,01,53,9.80
2010,06,12,01,54,9.80
2010,06,12,01,55,9.80
2010,06,12,01,56,9.70
2010,06,12,01,57,9.70
2010,06,12,01,58,9.70
2010,06,12,01,59,9.70
2010,06,12,02,00,9.70
2010,06,12,02,01,9.70
2010,06,12,02,02,9.70
2010,06,12,02,03,9.70
2010,06,12,02,04,9.60
2010,06,12,02,05,9.60
2010,06,12,02,06,9.60
2010,06,12,02,07,9.60
2010,06,12,02,08,9.60
2010,06,12,02,09,9.60
2010,06,12,02,10,9.60
2010,06,12,02,11,9.60
2010,06,12,02,12,9.60
2010,06,12,02,13,9.60
2010,06,12,02,14,9.60
2010,06,12,02,15,9.60
2010,06,12,02,16,9.50
2010,06,12,02,17,9.50
2010,06,12,02,18,9.50
2010,06,12,02,19,9.50
2010,06,12,02,20,9.50
2010,06,12,02,21,9.50
2010,06,12,02,22,9.50
2010,06,12,02,23,9.50
2010,06,12,02,24,9.50
2010,06,12,02,25,9.50
2010,06,12,02,26,9.50
2010,06,12,02,27,9.50
2010,06,12,02,28,9.50
2010,06,12,02,29,9.50
2010,06,12,02,30,9.50
2010,06,12,02,31,9.50
2010,06,12,02,32,9.40
2010,06,12,02,33,9.40
2010,06,12,02,34,9.40
2010,06,12,02,35,9.40
2010,06,12,02,36,9.40
2010,06,12,02,37,9.40
2010,06,12,02,38,9.40
2010,06,12,02,39,9.40
2010,06,12,02,40,9.30
2010,06,12,02,41,9.30
2010,06,12,02,42,9.30
2010,06,12,02,43,9.20
2010,06,12,02,44,9.20
2010,06,12,02,45,9.20
2010,06,12,02,46,9.20
2010,06,12,02,47,9.20
2010,06,12,02,48,9.20
2010,06,12,02,49,9.10
2010,06,12,02,50,9.10
2010,06,12,02,51,9.10
2010,06,12,02,52,9.10
2010,06,12,02,53,9.00
2010,06,12,02,54,9.00
2010,06,12,02,55,9.00
2010,06,12,02,56,9.00
2010,06,12,02,57,9.00
2010,06,12,02,58,9.00
2010,06,12,02,59,9.10
2010,06,12,03,00,9.10
2010,06,12,03,01,9.10
2010,06,12,03,02,9.10
2010,06,12,03,03,9.10
2010,06,12,03,04,9.10
2010,06,12,03,05,9.10
2010,06,12,03,06,9.10
2010,06,12,03,07,9.10
2010,06,12,03,08,9.10
2010,06,12,03,09,9.10
2010,06,12,03,10,9.10
2010,06,12,03,11,9.10
2010,06,12,03,12,9.10
2010,06,12,03,13,9.00
2010,06,12,03,14,9.00
2010,06,12,03,15,9.00
2010,06,12,03,16,9.00
2010,06,12,03,17,9.00
2010,06,12,03,18,9.00
2010,06,12,03,19,9.00
2010,06,12,03,20,9.00
2010,06,12,03,21,9.00
2010,06,12,03,22,9.00
2010,06,12,03,23,9.00
2010,06,12,03,24,9.00
2010,06,12,03,25,9.00
2010,06,12,03,26,8.90
2010,06,12,03,27,8.90
2010,06,12,03,28,8.90
2010,06,12,03,29,8.90
2010,06,12,03,30,8.90
2010,06,12,03,31,8.90
2010,06,12,03,32,8.90
2010,06,12,03,33,8.90
2010,06,12,03,34,8.90
2010,06,12,03,35,8.80
2010,06,12,03,36,8.80
2010,06,12,03,37,8.80
2010,06,12,03,38,8.80
2010,06,12,03,39,8.80
2010,06,12,03,40,8.80
2010,06,12,03,41,8.80
2010,06,12,03,42,8.80
2010,06,12,03,43,8.80
2010,06,12,03,44,8.80
2010,06,12,03,45,8.70
2010,06,12,03,46,8.70
2010,06,12,03,47,8.70
2010,06,12,03,48,8.70
2010,06,12,03,49,8.70
2010,06,12,03,50,8.70
2010,06,12,03,51,8.70
2010,06,12,03,52,8.60
2010,06,12,03,53,8.60
2010,06,12,03,54,8.70
2010,06,12,03,55,8.70
2010,06,12,03,56,8.70
2010,06,12,03,57,8.70
2010,06,12,03,58,8.70
2010,06,12,03,59,8.70
2010,06,12,04,00,8.70
2010,06,12,04,01,8.70
2010,06,12,04,02,8.70
2010,06,12,04,03,8.70
2010,06,12,04,04,8.70
2010,06,12,04,05,8.70
2010,06,12,04,06,8.70
2010,06,12,04,07,8.60
2010,06,12,04,08,8.60
2010,06,12,04,09,8.60
2010,06,12,04,10,8.50
2010,06,12,04,11,8.50
2010,06,12,04,12,8.50
2010,06,12,04,13,8.50
2010,06,12,04,14,8.40
2010,06,12,04,15,8.40
2010,06,12,04,16,8.40
2010,06,12,04,17,8.30
2010,06,12,04,18,8.30
2010,06,12,04,19,8.30
2010,06,12,04,20,8.20
2010,06,12,04,21,8.20
2010,06,12,04,22,8.20
2010,06,12,04,23,8.20
2010,06,12,04,24,8.20
2010,06,12,04,25,8.20
2010,06,12,04,26,8.20
2010,06,12,04,27,8.30
2010,06,12,04,28,8.30
2010,06,12,04,29,8.30
2010,06,12,04,30,8.30
2010,06,12,04,31,8.30
2010,06,12,04,32,8.30
2010,06,12,04,33,8.30
2010,06,12,04,34,8.30
2010,06,12,04,35,8.40
2010,06,12,04,36,8.40
2010,06,12,04,37,8.40
2010,06,12,04,38,8.40
2010,06,12,04,39,8.40
2010,06,12,04,40,8.40
2010,06,12,04,41,8.40
2010,06,12,04,42,8.40
2010,06,12,04,43,8.40
2010,06,12,04,44,8.40
2010,06,12,04,45,8.40
2010,06,12,04,46,8.30
2010,06,12,04,47,8.30
2010,06,12,04,48,8.30
2010,06,12,04,49,8.20
2010,06,12,04,50,8.20
2010,06,12,04,51,8.20
2010,06,12,04,52,8.20
2010,06,12,04,53,8.20
2010,06,12,04,54,8.20
2010,06,12,04,55,8.20
2010,06,12,04,56,8.20
2010,06,12,04,57,8.20
2010,06,12,04,58,8.20
2010,06,12,04,59,8.20
2010,06,12,05,00,8.20
2010,06,12,05,01,8.20
2010,06,12,05,02,8.20
2010,06,12,05,03,8.20
2010,06,12,05,04,8.20
2010,06,12,05,05,8.20
2010,06,12,05,06,8.20
2010,06,12,05,07,8.20
2010,06,12,05,08,8.20
2010,06,12,05,09,8.20
2010,06,12,05,10,8.20
2010,06,12,05,11,8.20
2010,06,12,05,12,8.20
2010,06,12,05,13,8.10
2010,06,12,05,14,8.10
2010,06,12,05,15,8.10
2010,06,12,05,16,8.10
2010,06,12,05,17,8.10
2010,06,12,05,18,8.10
2010,06,12,05,19,8.10
2010,06,12,05,20,8.10
2010,06,12,05,21,8.10
2010,06,12,05,22,8.10
2010,06,12,05,23,8.00
2010,06,12,05,24,8.00
2010,06,12,05,25,8.00
2010,06,12,05,26,8.00
2010,06,12,05,27,8.00
2010,06,12,05,28,8.00
2010,06,12,05,29,8.00
2010,06,12,05,30,8.00
2010,06,12,05,31,8.00
2010,06,12,05,32,8.00
2010,06,12,05,33,8.00
2010,06,12,05,34,8.00
2010,06,12,05,35,8.00
2010,06,12,05,36,8.10
2010,06,12,05,37,8.10
2010,06,12,05,38,8.20
2010,06,12,05,39,8.20
2010,06,12,05,40,8.20
2010,06,12,05,41,8.20
2010,06,12,05,42,8.30
2010,06,12,05,43,8.30
2010,06,12,05,44,8.40
2010,06,12,05,45,8.40
2010,06,12,05,46,8.40
2010,06,12,05,47,8.50
2010,06,12,05,48,8.50
2010,06,12,05,49,8.50
2010,06,12,05,50,8.50
2010,06,12,05,51,8.50
2010,06,12,05,52,8.50
2010,06,12,05,53,8.50
2010,06,12,05,54,8.50
2010,06,12,05,55,8.50
2010,06,12,05,56,8.50
2010,06,12,05,57,8.50
2010,06,12,05,58,8.60
2010,06,12,05,59,8.70
2010,06,12,06,00,8.70
2010,06,12,06,01,8.80
2010,06,12,06,02,8.80
2010,06,12,06,03,8.80
2010,06,12,06,04,8.90
2010,06,12,06,05,9.00
2010,06,12,06,06,9.00
2010,06,12,06,07,9.10
2010,06,12,06,08,9.10
2010,06,12,06,09,9.20
2010,06,12,06,10,9.20
2010,06,12,06,11,9.30
2010,06,12,06,12,9.30
2010,06,12,06,13,9.40
2010,06,12,06,14,9.40
2010,06,12,06,15,9.40
2010,06,12,06,16,9.40
2010,06,12,06,17,9.50
2010,06,12,06,18,9.50
2010,06,12,06,19,9.50
2010,06,12,06,20,9.60
2010,06,12,06,21,9.70
2010,06,12,06,22,9.70
2010,06,12,06,23,9.70
2010,06,12,06,24,9.70
2010,06,12,06,25,9.70
2010,06,12,06,26,9.80
2010,06,12,06,27,10.00
2010,06,12,06,28,10.10
2010,06,12,06,29,10.10
2010,06,12,06,30,10.10
2010,06,12,06,31,10.20
2010,06,12,06,32,10.20
2010,06,12,06,33,10.30
2010,06,12,06,34,10.40
2010,06,12,06,35,10.40
2010,06,12,06,36,10.50
2010,06,12,06,37,10.60
2010,06,12,06,38,10.60
2010,06,12,06,39,10.60
2010,06,12,06,40,10.70
2010,06,12,06,41,10.80
2010,06,12,06,42,10.90
2010,06,12,06,43,11.00
2010,06,12,06,44,11.10
2010,06,12,06,45,11.20
2010,06,12,06,46,11.20
2010,06,12,06,47,11.20
2010,06,12,06,48,11.30
2010,06,12,06,49,11.30
2010,06,12,06,50,11.40
2010,06,12,06,51,11.40
2010,06,12,06,52,11.40
2010,06,12,06,53,11.60
2010,06,12,06,54,11.60
2010,06,12,06,55,11.60
2010,06,12,06,56,11.60
2010,06,12,06,57,11.60
2010,06,12,06,58,11.60
2010,06,12,06,59,11.60
2010,06,12,07,00,11.60
2010,06,12,07,01,11.60
2010,06,12,07,02,11.70
2010,06,12,07,03,11.80
2010,06,12,07,04,11.90
2010,06,12,07,05,11.90
2010,06,12,07,06,12.00
2010,06,12,07,07,12.00
2010,06,12,07,08,12.00
2010,06,12,07,09,12.10
2010,06,12,07,10,12.10
2010,06,12,07,11,12.10
2010,06,12,07,12,12.10
2010,06,12,07,13,12.20
2010,06,12,07,14,12.20
2010,06,12,07,15,12.30
2010,06,12,07,16,12.40
2010,06,12,07,17,12.50
2010,06,12,07,18,12.50
2010,06,12,07,19,12.60
2010,06,12,07,20,12.60
2010,06,12,07,21,12.70
2010,06,12,07,22,12.70
2010,06,12,07,23,12.70
2010,06,12,07,24,12.80
2010,06,12,07,25,12.80
2010,06,12,07,26,12.90
2010,06,12,07,27,12.90
2010,06,12,07,28,13.00
2010,06,12,07,29,13.00
2010,06,12,07,30,13.10
2010,06,12,07,31,13.10
2010,06,12,07,32,13.10
2010,06,12,07,33,13.20
2010,06,12,07,34,13.20
2010,06,12,07,35,13.30
2010,06,12,07,36,13.40
2010,06,12,07,37,13.60
2010,06,12,07,38,13.60
2010,06,12,07,39,13.70
2010,06,12,07,40,13.70
2010,06,12,07,41,13.80
2010,06,12,07,42,13.90
2010,06,12,07,43,13.90
2010,06,12,07,44,14.00
2010,06,12,07,45,14.10
2010,06,12,07,46,14.20
2010,06,12,07,47,14.30
2010,06,12,07,48,14.40
2010,06,12,07,49,14.40
2010,06,12,07,50,14.50
2010,06,12,07,51,14.50
2010,06,12,07,52,14.50
2010,06,12,07,53,14.60
2010,06,12,07,54,14.70
2010,06,12,07,55,14.80
2010,06,12,07,56,14.90
2010,06,12,07,57,15.00
2010,06,12,07,58,15.00
2010,06,12,07,59,14.90
2010,06,12,08,00,14.90
2010,06,12,08,01,14.80
2010,06,12,08,02,14.80
2010,06,12,08,03,14.80
2010,06,12,08,04,14.80
2010,06,12,08,05,14.80
2010,06,12,08,06,14.90
2010,06,12,08,07,15.00
2010,06,12,08,08,15.10
2010,06,12,08,09,15.10
2010,06,12,08,10,15.10
2010,06,12,08,11,15.20
2010,06,12,08,12,15.20
2010,06,12,08,13,15.30
2010,06,12,08,14,15.30
2010,06,12,08,15,15.30
2010,06,12,08,16,15.30
2010,06,12,08,17,15.30
2010,06,12,08,18,15.30
2010,06,12,08,19,15.40
2010,06,12,08,20,15.50
2010,06,12,08,21,15.60
2010,06,12,08,22,15.70
2010,06,12,08,23,15.80
2010,06,12,08,24,15.90
2010,06,12,08,25,15.90
2010,06,12,08,26,15.90
2010,06,12,08,27,15.90
2010,06,12,08,28,15.90
2010,06,12,08,29,15.90
2010,06,12,08,30,15.90
2010,06,12,08,31,15.90
2010,06,12,08,32,16.00
2010,06,12,08,33,16.10
2010,06,12,08,34,16.10
2010,06,12,08,35,16.10
2010,06,12,08,36,16.10
2010,06,12,08,37,16.10
2010,06,12,08,38,16.20
2010,06,12,08,39,16.30
2010,06,12,08,40,16.20
2010,06,12,08,41,16.20
2010,06,12,08,42,16.30
2010,06,12,08,43,16.20
2010,06,12,08,44,16.10
2010,06,12,08,45,16.10
2010,06,12,08,46,16.10
2010,06,12,08,47,16.20
2010,06,12,08,48,16.30
2010,06,12,08,49,16.30
2010,06,12,08,50,16.40
2010,06,12,08,51,16.40
2010,06,12,08,52,16.30
2010,06,12,08,53,16.20
2010,06,12,08,54,16.10
2010,06,12,08,55,16.00
2010,06,12,08,56,15.90
2010,06,12,08,57,15.80
2010,06,12,08,58,15.80
2010,06,12,08,59,15.80
2010,06,12,09,00,15.80
2010,06,12,09,01,15.80
2010,06,12,09,02,15.80
2010,06,12,09,03,15.80
2010,06,12,09,04,15.90
2010,06,12,09,05,16.00
2010,06,12,09,06,16.10
2010,06,12,09,07,16.10
2010,06,12,09,08,16.30
2010,06,12,09,09,16.40
2010,06,12,09,10,16.50
2010,06,12,09,11,16.60
2010,06,12,09,12,16.70
2010,06,12,09,13,16.70
2010,06,12,09,14,16.70
2010,06,12,09,15,16.70
2010,06,12,09,16,16.70
2010,06,12,09,17,16.70
2010,06,12,09,18,16.60
2010,06,12,09,19,16.50
2010,06,12,09,20,16.30
2010,06,12,09,21,16.30
2010,06,12,09,22,16.20
2010,06,12,09,23,16.10
2010,06,12,09,24,16.10
2010,06,12,09,25,16.10
2010,06,12,09,26,16.00
2010,06,12,09,27,15.90
2010,06,12,09,28,15.80
2010,06,12,09,29,15.80
2010,06,12,09,30,15.80
2010,06,12,09,31,15.80
2010,06,12,09,32,15.80
2010,06,12,09,33,15.80
2010,06,12,09,34,15.80
2010,06,12,09,35,15.80
2010,06,12,09,36,15.80
2010,06,12,09,37,15.80
2010,06,12,09,38,15.90
2010,06,12,09,39,16.00
2010,06,12,09,40,16.10
2010,06,12,09,41,16.20
2010,06,12,09,42,16.30
2010,06,12,09,43,16.40
2010,06,12,09,44,16.50
2010,06,12,09,45,16.60
2010,06,12,09,46,16.70
2010,06,12,09,47,16.80
2010,06,12,09,48,16.80
2010,06,12,09,49,16.90
2010,06,12,09,50,16.90
2010,06,12,09,51,16.90
2010,06,12,09,52,16.90
2010,06,12,09,53,16.80
2010,06,12,09,54,16.70
2010,06,12,09,55,16.70
2010,06,12,09,56,16.70
2010,06,12,09,57,16.70
2010,06,12,09,58,16.60
2010,06,12,09,59,16.60
2010,06,12,10,00,16.60
2010,06,12,10,01,16.60
2010,06,12,10,02,16.60
2010,06,12,10,03,16.60
2010,06,12,10,04,16.70
2010,06,12,10,05,16.70
2010,06,12,10,06,16.80
2010,06,12,10,07,16.70
2010,06,12,10,08,16.70
2010,06,12,10,09,16.70
2010,06,12,10,10,16.80
2010,06,12,10,11,16.80
2010,06,12,10,12,16.60
2010,06,12,10,13,16.60
2010,06,12,10,14,16.40
2010,06,12,10,15,16.40
2010,06,12,10,16,16.30
2010,06,12,10,17,16.30
2010,06,12,10,18,16.30
2010,06,12,10,19,16.30
2010,06,12,10,20,16.20
2010,06,12,10,21,16.10
2010,06,12,10,22,16.00
2010,06,12,10,23,15.90
2010,06,12,10,24,15.90
2010,06,12,10,25,15.90
2010,06,12,10,26,15.90
2010,06,12,10,27,15.90
2010,06,12,10,28,16.10
2010,06,12,10,29,16.10
2010,06,12,10,30,16.30
2010,06,12,10,31,16.40
2010,06,12,10,32,16.50
2010,06,12,10,33,16.70
2010,06,12,10,34,16.70
2010,06,12,10,35,16.70
2010,06,12,10,36,16.70
2010,06,12,10,37,16.80
2010,06,12,10,38,16.80
2010,06,12,10,39,16.70
2010,06,12,10,40,16.70
2010,06,12,10,41,16.50
2010,06,12,10,42,16.40
2010,06,12,10,43,16.40
2010,06,12,10,44,16.40
2010,06,12,10,45,16.40
2010,06,12,10,46,16.40
2010,06,12,10,47,16.40
2010,06,12,10,48,16.40
2010,06,12,10,49,16.20
2010,06,12,10,50,15.90
2010,06,12,10,51,15.80
2010,06,12,10,52,15.60
2010,06,12,10,53,15.50
2010,06,12,10,54,15.40
2010,06,12,10,55,15.30
2010,06,12,10,56,15.30
2010,06,12,10,57,15.30
2010,06,12,10,58,15.30
2010,06,12,10,59,15.30
2010,06,12,11,00,15.30
2010,06,12,11,01,15.40
2010,06,12,11,02,15.50
2010,06,12,11,03,15.60
2010,06,12,11,04,15.70
2010,06,12,11,05,15.80
2010,06,12,11,06,15.90
2010,06,12,11,07,16.00
2010,06,12,11,08,16.10
2010,06,12,11,09,16.20
2010,06,12,11,10,16.20
2010,06,12,11,11,16.10
2010,06,12,11,12,15.90
2010,06,12,11,13,15.90
2010,06,12,11,14,16.00
2010,06,12,11,15,16.10
2010,06,12,11,16,16.10
2010,06,12,11,17,16.20
2010,06,12,11,18,16.30
2010,06,12,11,19,16.40
2010,06,12,11,20,16.50
2010,06,12,11,21,16.60
2010,06,12,11,22,16.70
2010,06,12,11,23,16.70
2010,06,12,11,24,16.80
2010,06,12,11,25,16.80
2010,06,12,11,26,16.90
2010,06,12,11,27,16.90
2010,06,12,11,28,16.90
2010,06,12,11,29,16.80
2010,06,12,11,30,16.80
2010,06,12,11,31,16.80
2010,06,12,11,32,16.80
2010,06,12,11,33,16.70
2010,06,12,11,34,16.60
2010,06,12,11,35,16.60
2010,06,12,11,36,16.60
2010,06,12,11,37,16.60
2010,06,12,11,38,16.70
2010,06,12,11,39,16.70
2010,06,12,11,40,16.70
2010,06,12,11,41,16.60
2010,06,12,11,42,16.50
2010,06,12,11,43,16.40
2010,06,12,11,44,16.40
2010,06,12,11,45,16.50
2010,06,12,11,46,16.60
2010,06,12,11,47,16.60
2010,06,12,11,48,16.60
2010,06,12,11,49,16.70
2010,06,12,11,50,16.70
2010,06,12,11,51,16.80
2010,06,12,11,52,16.70
2010,06,12,11,53,16.80
2010,06,12,11,54,16.70
2010,06,12,11,55,16.60
2010,06,12,11,56,16.40
2010,06,12,11,57,16.30
2010,06,12,11,58,16.20
2010,06,12,11,59,16.10
2010,06,12,12,00,16.10
2010,06,12,12,01,16.10
2010,06,12,12,02,16.20
2010,06,12,12,03,16.20
2010,06,12,12,04,16.30
2010,06,12,12,05,16.20
2010,06,12,12,06,16.30
2010,06,12,12,07,16.30
2010,06,12,12,08,16.40
2010,06,12,12,09,16.40
2010,06,12,12,10,16.50
2010,06,12,12,11,16.60
2010,06,12,12,12,16.60
2010,06,12,12,13,16.40
2010,06,12,12,14,16.40
2010,06,12,12,15,16.40
2010,06,12,12,16,16.20
2010,06,12,12,17,16.20
2010,06,12,12,18,16.10
2010,06,12,12,19,16.10
2010,06,12,12,20,15.90
2010,06,12,12,21,15.90
2010,06,12,12,22,16.10
2010,06,12,12,23,16.00
2010,06,12,12,24,16.10
2010,06,12,12,25,16.10
2010,06,12,12,26,16.00
2010,06,12,12,27,15.90
2010,06,12,12,28,15.80
2010,06,12,12,29,15.90
2010,06,12,12,30,15.90
2010,06,12,12,31,15.90
2010,06,12,12,32,16.00
2010,06,12,12,33,16.10
2010,06,12,12,34,16.30
2010,06,12,12,35,16.40
2010,06,12,12,36,16.50
2010,06,12,12,37,16.60
2010,06,12,12,38,16.70
2010,06,12,12,39,16.80
2010,06,12,12,40,16.80
2010,06,12,12,41,16.90
2010,06,12,12,42,16.90
2010,06,12,12,43,17.10
2010,06,12,12,44,17.20
2010,06,12,12,45,17.20
2010,06,12,12,46,17.30
2010,06,12,12,47,17.30
2010,06,12,12,48,17.30
2010,06,12,12,49,17.30
2010,06,12,12,50,17.30
2010,06,12,12,51,17.20
2010,06,12,12,52,17.10
2010,06,12,12,53,17.00
2010,06,12,12,54,16.90
2010,06,12,12,55,16.80
2010,06,12,12,56,16.70
2010,06,12,12,57,16.70
2010,06,12,12,58,16.70
2010,06,12,12,59,16.70
2010,06,12,13,00,16.60
2010,06,12,13,01,16.60
2010,06,12,13,02,16.70
2010,06,12,13,03,16.70
2010,06,12,13,04,16.70
2010,06,12,13,05,16.80
2010,06,12,13,06,16.80
2010,06,12,13,07,16.80
2010,06,12,13,08,16.80
2010,06,12,13,09,16.90
2010,06,12,13,10,16.90
2010,06,12,13,11,16.90
2010,06,12,13,12,16.90
2010,06,12,13,13,16.90
2010,06,12,13,14,16.90
2010,06,12,13,15,16.70
2010,06,12,13,16,16.70
2010,06,12,13,17,16.60
2010,06,12,13,18,16.60
2010,06,12,13,19,16.60
2010,06,12,13,20,16.80
2010,06,12,13,21,16.90
2010,06,12,13,22,17.00
2010,06,12,13,23,17.10
2010,06,12,13,24,17.00
2010,06,12,13,25,17.00
2010,06,12,13,26,17.00
2010,06,12,13,27,17.00
2010,06,12,13,28,16.90
2010,06,12,13,29,16.90
2010,06,12,13,30,16.80
2010,06,12,13,31,16.90
2010,06,12,13,32,16.90
2010,06,12,13,33,17.00
2010,06,12,13,34,17.00
2010,06,12,13,35,17.00
2010,06,12,13,36,16.90
2010,06,12,13,37,17.00
2010,06,12,13,38,17.00
2010,06,12,13,39,16.90
2010,06,12,13,40,17.00
2010,06,12,13,41,17.10
2010,06,12,13,42,17.20
2010,06,12,13,43,17.20
2010,06,12,13,44,17.20
2010,06,12,13,45,17.10
2010,06,12,13,46,17.10
2010,06,12,13,47,17.10
2010,06,12,13,48,17.10
2010,06,12,13,49,17.10
2010,06,12,13,50,17.00
2010,06,12,13,51,17.00
2010,06,12,13,52,17.20
2010,06,12,13,53,17.30
2010,06,12,13,54,17.30
2010,06,12,13,55,17.50
2010,06,12,13,56,17.60
2010,06,12,13,57,17.60
2010,06,12,13,58,17.70
2010,06,12,13,59,17.70
2010,06,12,14,00,17.60
2010,06,12,14,01,17.40
2010,06,12,14,02,17.50
2010,06,12,14,03,17.50
2010,06,12,14,04,17.60
2010,06,12,14,05,17.60
2010,06,12,14,06,17.70
2010,06,12,14,07,17.80
2010,06,12,14,08,17.90
2010,06,12,14,09,17.80
2010,06,12,14,10,17.70
2010,06,12,14,11,17.60
2010,06,12,14,12,17.40
2010,06,12,14,13,17.30
2010,06,12,14,14,17.30
2010,06,12,14,15,17.30
2010,06,12,14,16,17.30
2010,06,12,14,17,17.40
2010,06,12,14,18,17.40
2010,06,12,14,19,17.40
2010,06,12,14,20,17.40
2010,06,12,14,21,17.40
2010,06,12,14,22,17.50
2010,06,12,14,23,17.60
2010,06,12,14,24,17.80
2010,06,12,14,25,18.00
2010,06,12,14,26,18.10
2010,06,12,14,27,18.20
2010,06,12,14,28,18.20
2010,06,12,14,29,18.30
2010,06,12,14,30,18.20
2010,06,12,14,31,18.20
2010,06,12,14,32,18.20
2010,06,12,14,33,18.20
2010,06,12,14,34,18.30
2010,06,12,14,35,18.30
2010,06,12,14,36,18.40
2010,06,12,14,37,18.50
2010,06,12,14,38,18.50
2010,06,12,14,39,18.50
2010,06,12,14,40,18.60
2010,06,12,14,41,18.60
2010,06,12,14,42,18.50
2010,06,12,14,43,18.40
2010,06,12,14,44,18.20
2010,06,12,14,45,18.00
2010,06,12,14,46,17.90
2010,06,12,14,47,17.90
2010,06,12,14,48,17.90
2010,06,12,14,49,17.90
2010,06,12,14,50,17.90
2010,06,12,14,51,18.10
2010,06,12,14,52,18.30
2010,06,12,14,53,18.40
2010,06,12,14,54,18.50
2010,06,12,14,55,18.60
2010,06,12,14,56,18.80
2010,06,12,14,57,18.90
2010,06,12,14,58,18.90
2010,06,12,14,59,19.00
2010,06,12,15,00,19.10
2010,06,12,15,01,19.10
2010,06,12,15,02,19.00
2010,06,12,15,03,18.90
2010,06,12,15,04,18.90
2010,06,12,15,05,18.80
2010,06,12,15,06,18.60
2010,06,12,15,07,18.50
2010,06,12,15,08,18.40
2010,06,12,15,09,18.30
2010,06,12,15,10,18.20
2010,06,12,15,11,18.10
2010,06,12,15,12,18.10
2010,06,12,15,13,17.90
2010,06,12,15,14,18.00
2010,06,12,15,15,18.10
2010,06,12,15,16,18.10
2010,06,12,15,17,18.20
2010,06,12,15,18,18.20
2010,06,12,15,19,18.40
2010,06,12,15,20,18.50
2010,06,12,15,21,18.50
2010,06,12,15,22,18.50
2010,06,12,15,23,18.50
2010,06,12,15,24,18.40
2010,06,12,15,25,18.40
2010,06,12,15,26,18.30
2010,06,12,15,27,18.40
2010,06,12,15,28,18.40
2010,06,12,15,29,18.50
2010,06,12,15,30,18.60
2010,06,12,15,31,18.50
2010,06,12,15,32,18.40
2010,06,12,15,33,18.50
2010,06,12,15,34,18.60
2010,06,12,15,35,18.70
2010,06,12,15,36,18.80
2010,06,12,15,37,18.90
2010,06,12,15,38,19.10
2010,06,12,15,39,19.10
2010,06,12,15,40,19.20
2010,06,12,15,41,19.10
2010,06,12,15,42,19.10
2010,06,12,15,43,19.10
2010,06,12,15,44,19.00
2010,06,12,15,45,19.10
2010,06,12,15,46,19.10
2010,06,12,15,47,19.20
2010,06,12,15,48,19.30
2010,06,12,15,49,19.30
2010,06,12,15,50,19.30
2010,06,12,15,51,19.20
2010,06,12,15,52,19.20
2010,06,12,15,53,19.10
2010,06,12,15,54,19.10
2010,06,12,15,55,19.00
2010,06,12,15,56,18.90
2010,06,12,15,57,18.90
2010,06,12,15,58,18.90
2010,06,12,15,59,18.90
2010,06,12,16,00,18.90
2010,06,12,16,01,18.90
2010,06,12,16,02,18.90
2010,06,12,16,03,18.80
2010,06,12,16,04,18.80
2010,06,12,16,05,18.80
2010,06,12,16,06,18.70
2010,06,12,16,07,18.60
2010,06,12,16,08,18.50
2010,06,12,16,09,18.50
2010,06,12,16,10,18.50
2010,06,12,16,11,18.60
2010,06,12,16,12,18.70
2010,06,12,16,13,18.80
2010,06,12,16,14,18.90
2010,06,12,16,15,18.90
2010,06,12,16,16,18.90
2010,06,12,16,17,18.90
2010,06,12,16,18,18.90
2010,06,12,16,19,18.90
2010,06,12,16,20,18.90
2010,06,12,16,21,18.90
2010,06,12,16,22,18.90
2010,06,12,16,23,18.90
2010,06,12,16,24,18.90
2010,06,12,16,25,18.90
2010,06,12,16,26,18.80
2010,06,12,16,27,18.80
2010,06,12,16,28,18.80
2010,06,12,16,29,18.90
2010,06,12,16,30,19.00
2010,06,12,16,31,19.10
2010,06,12,16,32,19.10
2010,06,12,16,33,19.10
2010,06,12,16,34,19.10
2010,06,12,16,35,19.20
2010,06,12,16,36,19.20
2010,06,12,16,37,19.10
2010,06,12,16,38,19.00
2010,06,12,16,39,18.90
2010,06,12,16,40,18.70
2010,06,12,16,41,18.70
2010,06,12,16,42,18.70
2010,06,12,16,43,18.70
2010,06,12,16,44,18.60
2010,06,12,16,45,18.50
2010,06,12,16,46,18.50
2010,06,12,16,47,18.60
2010,06,12,16,48,18.80
2010,06,12,16,49,18.90
2010,06,12,16,50,19.00
2010,06,12,16,51,19.10
2010,06,12,16,52,19.10
2010,06,12,16,53,19.10
2010,06,12,16,54,19.10
2010,06,12,16,55,19.10
2010,06,12,16,56,19.20
2010,06,12,16,57,19.30
2010,06,12,16,58,19.40
2010,06,12,16,59,19.40
2010,06,12,17,00,19.40
2010,06,12,17,01,19.50
2010,06,12,17,02,19.40
2010,06,12,17,03,19.40
2010,06,12,17,04,19.40
2010,06,12,17,05,19.20
2010,06,12,17,06,19.10
2010,06,12,17,07,18.90
2010,06,12,17,08,18.90
2010,06,12,17,09,18.70
2010,06,12,17,10,18.70
2010,06,12,17,11,18.80
2010,06,12,17,12,18.70
2010,06,12,17,13,18.60
2010,06,12,17,14,18.60
2010,06,12,17,15,18.60
2010,06,12,17,16,18.60
2010,06,12,17,17,18.60
2010,06,12,17,18,18.70
2010,06,12,17,19,18.70
2010,06,12,17,20,18.80
2010,06,12,17,21,18.80
2010,06,12,17,22,18.90
2010,06,12,17,23,18.90
2010,06,12,17,24,18.90
2010,06,12,17,25,18.90
2010,06,12,17,26,18.90
2010,06,12,17,27,18.90
2010,06,12,17,28,18.80
2010,06,12,17,29,18.70
2010,06,12,17,30,18.70
2010,06,12,17,31,18.80
2010,06,12,17,32,18.70